Location: Oshawa
(43.9000°N, 78.8670°W)
Time: 15:33:21
(UTC-04:00)

ITAMSAT 1 - Visible Passes

Search period start: 30 June 2016 00:00
Search period end: 10 July 2016 00:00
Orbit: 785 x 796 km, 98.8° (Epoch: 30 June)

Date Brightness Start Highest point End Pass type
(mag) Time Alt. Az. Time Alt. Az. Time Alt. Az.
30 Jun 9.5 03:19:07 10° NE 03:23:19 24° E 03:27:29 10° SSE visible
30 Jun 8.2 04:57:59 10° N 05:03:00 46° WNW 05:07:57 10° SW visible
01 Jul 10.1 02:51:22 10° ENE 02:53:39 13° E 02:55:56 10° ESE visible
01 Jul 7.7 04:28:30 10° NNE 04:33:46 83° WNW 04:38:59 10° SSW visible
02 Jul 8.3 03:59:17 10° NNE 04:04:25 55° E 04:09:31 10° S visible
03 Jul 9.2 03:30:22 10° NE 03:34:56 30° E 03:39:29 10° SSE visible
04 Jul 10.0 03:02:05 10° NE 03:05:20 16° E 03:08:34 10° SE visible
04 Jul 7.8 04:40:04 10° N 04:45:17 66° WNW 04:50:26 10° SSW visible
05 Jul 7.9 04:10:44 10° NNE 04:15:59 69° ESE 04:21:10 10° S visible
06 Jul 8.9 03:41:41 10° NNE 03:46:33 37° E 03:51:21 10° SSE visible
07 Jul 9.7 03:13:06 10° NE 03:17:00 21° E 03:20:50 10° SE visible
07 Jul 8.0 04:51:41 10° N 04:56:45 53° WNW 05:01:48 10° SW visible
08 Jul 10.2 02:46:01 10° ENE 02:47:18 11° E 02:48:33 10° ESE visible
08 Jul 7.7 04:22:14 10° NNE 04:27:31 86° ESE 04:32:43 10° SSW visible
09 Jul 8.5 03:53:04 10° NNE 03:58:07 47° E 04:03:08 10° S visible
